Wind_Speed
11 11 11 10 10 10 10 11 11 11 11 12 12 12 12 13 13 13 13 13 13 14 14 15 15 15 15 15 15 14 14 13 13 13 14 15 15 14 14 13 13 12 12 12 12 12 12 13 13 14 15 15 15 15 15 15 15 16 16 14 12 11 11 13 14 15 17 19 19 22 24 24 21 22 25 24 21 20 18 14 15 18 16 14 14 16 18 17
12 12 12 12 12 13 13 13 13 13 14 14 14 14 14 15 15 15 15 15 15 16 16 16 17 17 17 17 17 17 16 16 16 15 16 17 17 15 13 12 12 12 13 14 13 13 14 14 15 15 16 17 16 16 16 16 16 17 17 16 17 15 14 17 19 19 20 22 22 23 25 26 24 23 26 27 24 23 22 18 16 19 19 16 16 18 19 18
14 14 14 14 15 15 15 16 16 16 16 16 16 16 16 16 16 16 16 16 17 17 17 18 18 18 18 19 19 19 18 17 18 18 18 17 14 12 12 12 13 15 16 16 16 15 16 16 16 16 17 18 17 16 17 18 18 19 20 20 21 19 19 21 22 21 20 23 25 25 25 25 25 24 26 27 26 25 22 21 20 19 20 20 20 21 23 21
16 16 16 17 17 17 17 17 18 18 17 17 17 17 17 17 17 17 17 17 17 18 18 18 19 19 19 19 19 20 19 18 19 18 17 15 13 13 14 15 17 18 18 17 16 16 16 16 16 17 17 18 19 18 18 20 18 21 25 24 22 20 22 23 23 23 22 24 26 25 25 25 25 24 26 28 29 28 21 19 21 20 21 23 24 24 26 25
19 19 18 19 19 19 19 19 19 19 19 18 18 18 18 18 18 18 18 18 18 18 19 19 20 20 20 20 20 20 19 14 15 18 17 17 16 17 17 18 18 18 17 16 15 16 16 16 17 18 18 18 21 21 20 21 19 23 28 26 24 23 26 25 24 27 25 24 26 26 26 26 27 27 26 28 31 30 21 18 21 22 24 26 27 26 26 26
21 21 21 21 20 20 20 20 20 20 20 19 19 19 19 19 19 19 19 19 19 19 20 20 20 21 20 21 21 21 19 12 14 20 21 21 19 19 19 18 18 17 16 15 15 16 16 17 18 18 19 19 22 23 22 23 23 24 28 27 27 27 28 26 26 29 26 26 28 27 28 28 30 28 26 30 34 31 23 20 22 23 26 27 28 27 25 25
23 23 22 22 22 22 22 21 21 21 21 20 20 20 20 20 20 20 20 20 21 20 21 21 21 22 21 22 21 22 22 15 15 21 22 22 20 19 19 17 17 16 16 16 16 17 18 18 19 18 20 21 22 23 23 25 25 27 29 28 28 29 29 27 27 30 28 28 29 30 30 29 29 29 29 31 33 33 27 21 22 23 25 26 27 27 26 26
24 24 24 24 24 23 23 23 22 22 21 21 21 21 21 21 21 21 21 21 21 21 21 21 21 21 21 23 22 24 23 16 14 19 20 19 19 18 18 17 17 17 17 18 18 19 19 19 19 19 20 21 22 24 25 27 27 29 31 28 27 30 30 28 29 32 30 29 29 30 32 30 28 30 33 31 29 30 27 22 23 24 25 27 27 27 27 27
25 25 25 25 24 24 23 23 23 22 22 22 22 22 22 22 22 22 22 22 22 22 22 22 23 23 23 24 24 26 23 16 15 17 17 18 19 19 20 20 20 20 20 20 20 20 20 20 20 21 21 21 24 26 27 28 26 28 31 30 30 31 32 31 32 32 31 30 30 31 32 30 26 29 35 31 27 28 27 25 24 25 27 28 28 28 29 29
26 26 25 25 25 24 24 24 24 23 23 23 23 23 23 23 23 23 23 23 23 23 23 24 24 24 24 25 26 28 23 18 18 19 19 20 21 22 23 23 23 23 23 22 22 22 22 22 23 24 23 24 27 27 26 28 28 28 30 32 32 32 33 33 33 34 33 32 31 30 30 29 26 30 35 30 27 28 29 30 28 26 27 28 29 30 30 30
26 26 26 26 26 26 26 25 25 25 25 24 24 24 24 24 24 24 24 24 24 24 25 25 25 25 26 26 28 28 24 21 22 21 21 22 23 24 25 25 25 25 25 25 24 24 24 25 25 24 24 25 27 27 28 29 29 29 30 33 33 33 34 34 35 35 32 32 30 27 30 33 30 31 35 31 30 31 29 31 32 30 28 27 28 29 30 30
27 27 27 27 27 27 26 26 26 26 25 25 25 25 25 25 25 26 26 26 26 26 26 26 26 26 27 28 28 27 25 24 23 22 22 23 23 25 25 25 25 25 26 26 26 26 26 26 26 25 25 26 26 27 30 30 29 30 31 34 35 35 36 34 33 32 29 30 31 30 30 33 32 31 34 31 29 33 32 32 33 33 31 28 27 28 28 29
27 27 27 26 26 26 26 26 26 26 26 26 27 27 27 27 27 27 27 27 27 27 27 27 27 27 28 29 28 26 25 26 24 23 23 23 24 24 25 25 24 24 24 24 24 24 24 25 25 25 25 24 25 26 29 31 32 32 31 34 37 37 35 31 30 31 31 33 33 30 26 28 33 32 30 27 27 33 35 33 34 34 34 32 29 28 27 27
27 27 27 27 27 27 27 28 28 28 28 28 28 28 28 28 28 28 28 27 27 27 27 27 27 27 28 28 28 26 26 26 25 24 23 23 23 22 21 21 21 21 21 22 22 22 22 22 22 23 24 23 25 27 29 31 32 32 30 31 32 30 28 27 31 35 33 34 34 30 25 26 34 35 30 28 32 38 37 34 33 31 31 30 28 26 26 25
28 28 28 28 28 28 29 29 29 29 29 29 29 29 29 29 28 28 28 27 27 27 26 26 26 27 29 28 27 27 26 25 24 23 22 21 21 21 20 20 20 20 20 20 19 20 21 21 21 22 22 22 24 28 29 27 28 31 27 25 24 21 22 21 26 34 34 31 32 30 24 21 29 37 34 31 35 38 37 34 29 26 26 24 23 23 23 23
29 29 29 29 29 29 29 29 30 30 29 29 29 29 29 28 28 28 28 27 26 26 26 26 25 25 28 27 26 26 25 24 23 22 22 22 22 21 19 19 19 19 19 20 21 22 23 24 24 22 23 24 25 26 24 20 22 25 21 22 21 19 21 18 18 29 33 33 33 32 28 26 31 37 35 31 31 30 30 28 24 24 22 18 18 18 18 19
29 29 29 29 29 29 29 29 29 29 29 28 28 28 27 27 28 27 27 27 26 26 26 26 25 27 27 26 26 26 25 24 23 23 22 21 19 18 19 20 20 21 22 24 25 26 26 26 25 23 23 24 24 23 18 14 18 19 17 22 21 18 20 19 19 28 33 33 29 28 32 34 32 34 34 30 27 27 27 25 24 24 19 13 14 16 17 18
28 28 28 28 28 28 28 28 27 27 27 27 26 26 26 27 27 27 27 26 26 26 26 26 26 26 24 23 24 22 21 20 19 18 18 18 20 23 25 25 25 26 27 27 28 27 26 27 26 22 23 27 27 26 23 20 20 20 20 22 22 22 23 24 27 30 30 29 27 27 31 30 28 31 32 30 28 29 27 27 25 19 11 10 16 20 20 19
27 26 27 26 26 26 26 26 26 26 26 26 26 26 27 27 27 28 27 27 27 26 26 26 26 24 21 21 23 23 23 23 22 22 22 25 27 29 29 28 29 29 29 28 29 29 27 28 27 23 25 27 26 26 27 25 23 22 24 26 27 28 28 29 33 30 27 29 30 32 32 30 31 32 33 31 26 24 24 25 18 8 8 14 23 26 21 20
27 27 26 26 26 26 25 25 26 26 26 26 26 27 27 28 27 28 29 27 26 26 26 27 27 26 25 27 27 26 26 27 27 27 28 29 29 30 31 31 31 31 30 28 28 30 27 25 25 26 27 24 20 21 23 23 22 23 26 28 28 27 28 32 32 26 25 30 30 31 34 33 34 36 35 28 18 13 14 12 7 8 17 23 26 25 22 24
28 28 27 26 26 26 25 26 26 26 26 26 25 26 27 27 26 27 29 28 27 27 27 28 29 29 27 29 28 26 26 27 28 29 29 30 30 31 33 32 31 30 29 27 27 27 26 24 26 27 26 21 20 22 22 24 26 27 27 26 25 24 28 30 26 22 24 29 29 31 35 35 37 37 28 14 5 5 8 11 16 21 24 23 22 24 24 26
28 28 27 27 26 26 26 26 26 26 25 25 24 24 25 25 26 27 30 31 29 27 27 28 29 29 27 29 28 26 27 28 29 30 29 30 31 32 34 32 31 29 27 28 27 25 25 27 28 26 21 20 24 24 24 27 28 29 27 24 23 25 28 23 17 18 23 28 32 33 33 34 34 26 15 4 3 11 19 19 24 26 21 19 23 25 23 21
28 28 28 27 26 26 26 25 25 24 24 24 24 24 24 25 26 27 29 32 33 29 28 29 29 28 27 29 28 27 29 30 30 32 30 31 32 32 33 32 31 29 29 30 29 25 21 19 23 26 24 24 27 26 25 26 26 26 25 22 22 23 21 17 14 17 22 29 32 29 28 30 25 12 6 4 6 17 26 22 22 24 20 19 23 21 16 14
28 28 28 27 26 26 25 25 24 24 24 25 25 25 26 26 27 28 29 32 35 32 29 28 27 27 27 28 28 28 31 30 31 33 30 30 33 31 32 32 30 30 32 32 31 29 24 20 25 29 28 26 25 22 20 20 22 22 21 22 23 20 17 17 20 21 25 27 22 20 22 21 12 4 4 6 12 19 19 19 21 22 20 19 19 12 8 5
30 29 28 27 26 26 25 25 25 25 26 26 26 26 27 27 27 28 28 30 33 31 28 27 26 24 24 26 27 27 29 30 30 31 30 30 31 31 32 32 30 28 28 27 25 27 27 26 27 25 21 19 18 17 14 16 21 20 19 21 20 18 18 20 23 24 23 15 9 13 17 11 5 8 12 15 17 14 9 16 18 16 16 16 12 7 6 3
31 29 28 28 26 26 26 26 26 26 27 26 26 26 27 27 26 26 26 25 27 24 21 20 19 18 16 16 19 20 21 22 22 23 23 24 25 26 27 28 28 25 23 23 22 23 24 22 19 15 14 13 14 16 14 15 19 17 17 19 18 18 21 23 24 23 17 12 15 17 14 11 12 17 17 15 13 7 9 16 14 12 12 12 10 6 5 3
31 30 29 28 27 26 27 27 27 27 27 26 26 25 25 24 23 22 19 16 16 14 11 11 12 12 9 5 7 8 9 10 10 12 14 16 18 19 21 22 25 23 21 20 19 18 19 16 13 12 12 13 15 17 14 13 15 16 17 18 18 20 22 24 25 24 20 21 24 18 9 12 18 15 10 8 8 6 9 13 13 12 11 12 11 9 8 9
32 31 29 29 29 28 28 28 27 27 27 26 24 22 21 20 19 16 9 7 5 2 4 9 9 10 10 6 5 6 7 7 6 8 11 12 12 12 12 14 16 18 16 15 15 16 18 18 17 17 17 17 18 17 15 14 15 18 19 19 20 21 23 25 27 26 24 21 17 9 6 9 15 11 6 6 8 10 10 13 15 14 15 15 12 12 13 12
32 32 30 30 30 29 29 28 27 27 26 24 20 19 17 16 15 10 5 5 4 3 6 9 10 10 8 7 7 7 7 8 9 10 10 10 9 8 7 7 9 13 13 14 17 19 20 21 21 20 19 19 19 18 17 16 18 20 21 22 22 24 27 28 26 24 19 14 15 14 12 9 11 9 7 5 10 12 10 14 17 15 15 15 14 15 14 13
27 29 29 29 29 28 27 26 25 26 24 21 18 17 15 14 12 8 7 6 4 4 7 9 11 12 9 8 9 10 10 9 8 9 10 10 10 9 9 9 11 14 15 17 20 21 22 23 23 22 20 18 19 19 18 18 19 19 21 23 26 28 28 25 20 15 11 11 15 14 15 11 7 5 4 5 12 15 10 13 18 16 14 14 14 16 17 18
25 24 25 26 26 25 25 24 24 25 23 20 17 15 14 12 11 9 8 8 6 7 7 9 13 15 13 12 11 11 11 9 8 8 9 10 12 12 12 11 13 15 17 21 23 24 25 25 24 22 20 20 21 20 21 22 20 20 23 25 24 21 17 13 10 6 6 8 7 5 11 11 9 7 5 6 12 19 15 11 13 15 20 22 19 20 22 21
26 24 23 24 24 23 23 22 23 23 22 20 17 15 12 10 14 16 10 5 5 7 8 8 10 14 14 12 11 10 9 9 9 10 10 12 14 16 16 15 15 15 15 16 18 20 25 28 27 27 26 26 25 23 23 24 23 22 24 21 15 11 9 9 7 5 9 9 5 5 6 10 15 16 14 10 13 20 19 18 21 25 28 29 26 25 23 23
22 21 21 23 23 23 23 22 23 24 23 21 17 15 12 9 13 17 15 10 6 6 7 8 7 9 9 8 9 9 9 10 12 13 15 17 19 22 22 22 22 19 16 17 17 17 20 23 25 27 27 25 25 24 20 19 18 18 17 13 8 7 7 7 7 7 11 11 10 12 11 11 15 16 15 17 21 26 29 32 32 30 29 31 33 33 30 31
19 18 18 20 21 22 24 24 25 27 26 24 21 16 15 15 14 13 16 16 12 9 8 9 8 9 9 9 11 13 13 14 18 21 22 23 26 27 26 26 25 22 20 20 19 17 16 16 17 18 17 16 18 18 16 16 18 20 20 16 12 13 11 8 9 8 10 13 14 12 7 7 10 9 8 14 20 25 28 31 32 30 31 35 38 39 38 40
21 21 21 22 22 23 25 26 28 29 29 27 23 20 22 23 18 14 16 16 14 14 14 14 16 18 18 19 21 23 21 19 21 24 24 25 25 23 21 20 20 20 19 17 14 14 15 16 16 14 12 13 14 14 15 17 18 19 21 19 18 21 20 16 18 19 19 17 14 14 15 17 20 20 20 22 24 29 31 34 37 36 35 36 38 42 43 42
25 25 26 25 24 25 26 28 30 31 31 26 24 28 33 30 19 12 12 13 13 14 16 17 19 20 20 19 21 23 21 20 22 22 20 21 22 21 22 22 23 24 23 20 16 14 14 14 14 14 12 13 16 16 17 18 16 13 14 17 19 23 23 19 19 23 21 14 14 19 23 26 26 24 27 29 29 32 34 34 36 34 32 32 33 35 33 29
27 27 28 27 26 27 28 29 31 33 32 28 28 34 38 34 25 18 16 17 16 15 16 15 15 15 14 13 15 15 13 14 17 18 15 15 15 17 18 20 21 21 20 20 18 17 17 18 20 22 19 17 20 22 23 23 23 21 19 20 21 20 20 18 14 13 14 11 12 20 24 25 21 16 18 21 22 27 29 28 28 26 22 21 22 23 23 25
26 26 27 26 27 29 30 31 33 34 31 29 34 36 34 31 29 27 26 26 25 22 20 18 16 16 15 13 13 13 12 12 12 14 17 15 13 14 14 15 16 16 18 19 17 16 17 19 22 24 25 22 21 24 26 26 27 29 27 24 21 16 14 17 14 9 10 9 9 17 24 25 24 23 22 22 24 28 28 24 23 22 19 19 20 22 24 26
26 26 26 25 26 29 32 32 31 29 27 28 32 33 32 33 31 30 31 31 28 24 21 22 21 20 20 19 18 17 17 17 15 16 16 15 14 13 12 13 12 12 15 15 14 15 17 17 18 23 28 26 22 23 27 26 24 26 27 26 27 24 21 21 19 14 11 9 9 12 15 18 25 27 26 25 25 25 21 19 19 20 22 24 25 26 25 24
26 27 27 24 25 28 30 30 28 26 26 29 32 31 32 33 32 32 32 31 30 28 26 27 26 26 27 28 26 24 23 22 21 20 19 18 18 15 13 14 14 15 17 17 19 23 24 21 21 24 28 27 21 19 22 22 19 19 21 21 22 24 24 23 24 26 22 12 8 9 10 17 25 26 28 32 27 22 22 24 27 28 27 26 26 27 26 26
27 29 29 26 26 27 27 28 30 30 31 32 34 34 33 33 33 33 32 32 32 31 31 31 30 30 31 31 29 27 26 26 26 25 25 26 25 22 20 20 20 19 20 21 22 23 23 22 22 22 24 27 26 21 20 23 23 23 22 21 20 22 23 18 16 25 29 19 13 12 10 17 28 30 32 35 31 31 35 36 35 35 32 28 26 26 26 27
32 33 32 29 29 29 30 32 34 35 35 36 38 37 36 38 39 38 37 36 35 32 32 32 32 32 33 32 30 28 27 28 28 27 26 27 25 22 22 23 22 22 23 23 23 24 25 23 24 26 28 32 35 31 28 29 29 29 29 29 27 26 26 20 12 17 23 23 23 19 11 18 35 40 37 35 35 39 42 39 36 36 34 32 29 28 28 30
35 36 35 33 33 33 32 34 36 37 37 39 39 38 37 39 39 38 37 35 32 31 30 31 31 32 31 30 29 28 27 27 28 27 24 24 24 23 25 25 24 23 22 22 21 23 24 21 19 22 27 32 34 33 32 33 33 33 33 34 31 30 32 30 27 25 20 19 24 19 10 17 29 31 29 30 32 35 37 39 40 39 38 35 33 34 35 38
37 37 37 37 37 35 35 36 38 39 38 36 35 33 32 32 34 35 35 34 32 30 30 31 30 29 30 29 27 28 25 20 20 22 21 20 21 22 23 22 21 22 21 21 20 20 19 17 13 12 13 17 20 18 19 20 21 21 22 24 24 25 27 28 33 32 21 21 29 20 13 21 26 25 30 35 35 35 36 38 39 39 38 37 38 40 43 48
37 36 36 37 36 36 38 40 40 38 36 33 32 30 28 29 31 32 33 33 32 31 31 31 30 29 29 28 27 28 27 22 20 21 23 23 22 23 24 22 23 24 23 23 23 21 19 19 18 13 7 8 10 11 13 13 14 15 17 20 22 24 26 27 31 29 22 27 33 23 18 27 27 26 32 35 34 35 35 36 38 40 42 44 47 50 53 55
35 34 34 34 34 35 38 39 37 36 33 30 29 29 29 30 30 31 32 33 32 31 30 29 28 28 29 29 28 28 28 27 25 25 28 28 23 22 25 25 25 24 23 23 22 22 22 23 25 23 19 19 21 24 27 27 27 27 26 27 30 32 34 33 31 30 29 27 26 27 32 37 35 37 41 41 39 38 40 43 47 49 51 52 55 56 56 55
33 34 35 34 31 32 37 38 37 36 33 30 30 31 30 29 29 30 32 33 32 32 31 30 29 28 29 29 28 26 25 24 24 26 29 28 24 22 25 28 29 27 28 28 26 26 25 25 29 30 28 29 31 33 35 34 32 31 29 29 31 32 34 35 36 38 37 27 24 35 43 40 39 42 43 43 41 39 42 46 50 53 54 54 54 54 54 54
33 34 34 34 32 31 35 37 36 37 35 31 31 33 31 28 26 27 29 32 33 31 30 30 31 31 31 28 23 21 22 21 21 23 24 23 22 22 23 26 28 29 30 28 28 27 24 26 32 33 31 34 35 34 33 31 29 29 30 31 32 32 35 39 40 39 37 33 34 40 41 38 39 40 39 42 43 41 41 44 47 50 51 51 51 52 53 53
32 33 32 32 34 34 34 32 30 32 35 34 33 34 33 28 23 21 24 28 30 29 27 26 27 27 28 27 23 21 20 18 16 18 20 21 22 23 23 23 24 28 29 27 28 26 22 25 29 28 28 32 36 37 35 31 30 32 34 34 35 37 39 41 40 38 37 41 43 43 42 43 43 42 42 44 44 43 44 43 44 45 47 49 50 50 50 49
32 33 31 32 33 33 33 31 28 29 31 33 35 36 35 32 26 21 23 27 27 27 26 23 22 23 24 25 25 24 23 21 20 21 23 24 25 25 25 24 25 28 31 31 31 27 24 25 25 24 25 28 35 38 33 27 28 32 33 34 36 38 39 38 38 37 37 40 41 41 43 43 41 40 42 40 39 40 42 42 43 43 44 46 46 45 46 45
30 30 30 30 31 30 30 31 29 29 29 31 35 35 33 34 31 22 22 29 30 27 27 25 24 25 26 26 27 27 27 28 29 29 29 30 30 29 28 29 30 32 35 34 31 28 26 24 24 25 23 26 33 33 27 27 30 31 36 41 45 45 42 38 37 35 35 38 40 40 42 41 40 41 41 39 38 40 41 42 42 42 43 43 42 41 41 40
28 28 28 28 29 29 29 29 29 30 32 32 33 32 31 32 31 24 22 28 32 31 31 30 29 28 28 28 29 30 31 31 31 32 32 32 32 32 32 33 34 35 36 33 28 27 26 24 25 24 20 24 32 30 27 27 23 27 42 50 49 48 46 42 40 37 36 38 40 40 41 41 41 41 40 40 41 42 43 43 42 42 42 41 39 37 36 36
Wind_Direction
263 265 268 270 272 274 276 278 280 280 281 281 282 282 282 282 283 284 285 286 287 289 290 290 292 292 294 294 295 295 297 301 302 303 304 302 303 305 306 305 304 304 305 307 308 307 307 305 305 304 303 303 302 302 301 299 300 295 295 288 265 264 267 266 280 289 287 287 290 292 295 299 300 300 298 296 297 297 295 295 297 296 295 293 287 283 284 288
261 263 265 268 270 273 275 275 276 277 277 277 278 278 279 280 280 281 282 282 284 285 286 287 288 289 291 292 292 293 295 297 298 298 297 297 298 301 302 302 301 301 303 304 305 305 303 303 303 302 301 300 299 299 297 298 297 293 290 277 269 278 278 275 286 292 290 290 290 290 294 298 300 300 297 296 298 297 296 298 300 296 297 294 285 281 279 283
263 264 266 268 270 272 273 274 274 274 274 275 275 275 276 277 278 279 280 280 282 283 284 285 285 287 289 290 292 292 295 298 297 296 294 292 294 295 296 297 298 298 299 300 301 301 300 300 299 299 298 297 297 297 295 295 297 291 283 276 282 290 286 289 295 294 290 289 290 291 293 296 299 298 295 296 297 293 294 300 299 293 296 296 290 286 282 284
266 268 269 270 272 273 274 274 274 274 274 274 274 274 275 276 277 278 279 280 281 282 283 284 285 287 287 288 291 291 295 301 298 294 291 289 291 292 294 295 295 295 297 298 298 298 297 297 297 296 297 296 295 295 293 294 297 288 283 287 291 289 287 293 296 293 292 291 291 293 294 296 296 295 295 297 294 291 295 300 297 292 289 288 285 284 284 287
270 271 272 273 274 274 275 275 276 276 275 276 276 276 276 277 278 278 280 280 282 283 283 285 286 287 288 289 290 291 296 302 294 292 290 288 291 291 291 291 290 291 293 295 297 296 295 295 295 295 295 295 294 295 293 291 292 286 287 292 292 289 290 294 294 292 293 292 292 294 295 296 294 294 297 295 290 290 295 295 290 286 284 282 282 281 283 286
273 273 273 274 274 275 275 276 276 277 278 278 279 278 279 279 279 280 280 282 282 283 284 285 286 287 288 288 289 290 290 290 287 289 288 288 289 288 287 286 284 286 288 291 293 292 293 292 292 294 293 292 292 293 292 290 291 289 289 292 293 292 291 293 292 290 293 293 293 294 294 294 294 296 295 290 287 289 295 294 287 283 280 280 281 282 283 282
274 274 275 275 275 275 276 276 277 277 278 279 279 280 280 281 281 282 282 283 284 284 284 285 286 287 288 288 289 288 285 286 288 286 286 289 289 287 285 283 282 283 284 287 288 288 289 289 291 291 290 292 290 289 288 289 292 289 287 290 291 289 289 292 291 289 294 294 294 295 293 293 295 296 292 286 287 293 299 298 289 284 281 280 281 283 283 281
273 274 275 275 275 276 276 277 277 277 277 278 278 278 279 280 281 282 283 284 284 285 285 286 287 287 288 288 289 286 285 293 292 284 286 289 289 288 285 283 282 283 285 286 285 286 286 287 289 287 287 289 286 285 287 290 292 289 289 291 289 289 292 294 292 292 295 296 296 295 294 296 297 296 288 285 289 296 300 298 290 286 284 282 282 283 283 281
272 273 273 273 274 274 275 275 276 277 277 278 278 278 279 280 280 281 282 283 283 284 285 285 285 286 287 287 288 285 286 296 291 283 287 287 287 287 285 285 286 286 286 285 285 285 284 285 283 282 284 285 283 285 288 289 288 287 290 293 292 292 296 298 296 296 299 300 298 296 296 297 298 294 288 292 300 299 300 298 292 289 286 285 285 285 285 284
271 272 272 273 273 273 274 275 275 276 277 278 279 280 280 281 282 283 283 283 283 284 284 284 284 284 284 284 285 283 286 293 287 283 284 283 284 283 283 285 285 286 285 284 284 283 282 282 281 284 285 283 284 287 288 287 286 286 290 292 294 295 297 298 298 299 302 301 299 300 299 296 296 293 291 301 307 301 300 299 297 292 288 288 288 287 288 287
270 271 272 273 274 274 275 276 277 277 277 278 279 280 280 282 283 284 285 285 285 285 284 283 283 282 282 282 281 282 287 288 284 283 281 280 280 280 281 281 281 282 282 282 282 281 281 281 282 284 283 284 287 290 288 287 288 290 292 293 295 296 297 298 298 300 303 301 302 306 302 297 298 295 296 306 307 300 299 298 299 297 293 292 291 291 290 289
270 271 272 272 274 275 275 276 277 278 278 279 279 280 281 282 283 284 284 285 284 284 283 283 282 282 281 279 279 283 288 286 284 283 281 280 279 278 279 279 279 279 279 280 279 280 281 281 283 281 281 285 288 288 289 291 292 292 294 295 295 297 297 299 300 302 305 302 303 308 304 300 301 300 305 311 308 303 304 302 300 301 300 298 296 294 291 290
270 271 272 273 273 274 275 276 276 277 278 279 279 280 280 281 282 282 283 283 283 282 281 281 280 280 279 279 280 283 284 284 285 285 284 282 279 278 277 277 277 277 277 277 277 279 279 280 282 282 283 286 286 285 289 293 292 292 295 294 296 300 299 302 302 301 304 300 301 305 299 298 300 300 304 305 299 300 303 302 300 302 302 301 299 295 292 291
271 271 272 273 273 274 274 275 275 276 277 278 279 279 280 280 280 281 281 281 280 279 279 278 278 278 277 278 281 283 283 283 285 285 284 281 279 278 276 276 276 275 275 276 277 278 278 280 281 282 284 286 287 287 288 289 288 294 296 292 296 298 298 304 303 303 305 299 303 305 293 295 302 302 303 302 299 302 303 302 302 302 301 299 299 297 293 288
271 272 273 273 273 274 274 275 275 276 277 278 279 279 279 279 279 279 279 279 278 278 277 277 277 277 277 279 281 283 283 284 285 284 281 279 278 277 276 275 273 274 275 275 277 278 280 281 280 282 284 286 287 287 286 284 288 296 293 287 293 289 290 301 302 305 307 300 304 306 292 289 299 301 301 300 300 302 303 306 307 303 299 300 302 299 292 285
272 273 274 274 275 275 275 276 276 276 277 278 278 278 279 279 278 278 277 277 277 277 277 276 276 275 276 280 282 281 282 283 282 280 279 279 279 277 274 272 272 273 272 274 276 278 281 280 280 281 282 285 286 284 285 282 287 292 280 276 287 286 290 297 296 302 303 300 305 305 297 294 299 303 302 302 305 303 305 311 310 303 302 305 302 296 291 289
271 272 273 274 275 275 276 276 276 277 277 277 278 278 278 278 278 278 277 277 277 277 277 275 276 275 276 280 281 279 279 280 279 277 275 274 273 274 276 275 274 272 273 275 277 279 281 279 280 279 280 283 280 276 274 271 281 288 278 277 285 288 292 297 295 299 302 304 306 302 299 300 304 307 310 316 317 314 313 312 306 303 304 301 291 294 297 291
271 272 273 273 274 275 275 275 276 276 277 277 278 278 278 278 278 278 278 278 278 278 277 276 276 275 276 279 277 275 277 277 276 276 269 265 269 276 279 277 275 275 275 277 277 278 279 279 278 276 279 280 276 273 269 271 283 290 288 285 287 288 289 292 294 299 301 301 299 295 295 297 300 304 310 318 319 316 312 303 302 305 298 283 287 296 296 283
271 271 271 272 272 272 273 273 274 274 275 276 277 278 278 278 279 279 278 278 278 278 277 276 275 271 270 272 272 272 275 275 274 272 268 268 272 275 276 274 274 275 276 278 278 277 277 277 275 273 277 277 278 282 282 281 284 286 284 281 283 288 288 290 297 302 299 294 296 298 299 299 302 306 312 318 316 309 300 295 301 307 284 285 291 294 288 274
268 268 268 268 269 270 270 271 271 272 273 275 276 277 278 279 280 280 278 278 278 277 274 274 274 271 269 269 270 271 273 272 272 270 269 269 270 272 271 271 273 274 275 277 275 277 279 275 269 273 282 281 274 279 282 279 278 280 280 280 282 284 285 292 301 303 296 295 300 303 305 306 309 314 319 322 316 298 294 301 303 284 288 292 290 284 271 259
266 266 266 267 267 267 267 268 269 270 271 273 274 275 277 279 280 280 281 280 276 275 274 273 272 272 271 270 269 271 270 269 269 268 268 268 268 269 269 270 272 275 276 275 274 279 279 269 268 280 290 286 272 270 272 272 276 279 279 281 282 281 286 294 300 297 295 300 303 306 307 306 310 316 321 317 301 329 330 318 301 288 287 285 276 267 257 252
266 266 266 266 265 265 265 266 267 268 269 270 270 272 273 276 279 280 283 281 276 274 273 272 272 273 273 271 271 271 267 266 267 267 266 266 266 266 268 270 273 275 275 275 279 280 276 273 280 289 290 282 279 281 280 279 281 280 278 277 276 283 292 298 299 296 301 303 304 308 308 310 316 320 324 279 208 356 341 313 296 286 278 266 257 256 252 252
266 266 265 264 262 262 262 263 264 265 266 268 269 271 272 275 277 279 281 282 279 274 272 272 273 273 271 270 271 269 265 264 263 264 263 263 263 264 267 271 274 276 275 278 280 274 267 276 289 294 290 285 286 287 286 284 282 279 278 274 272 283 292 295 296 292 299 304 306 312 312 316 322 315 318 258 246 327 325 305 290 279 270 253 244 246 246 248
264 264 264 263 261 261 261 261 261 263 266 268 270 273 275 276 277 278 280 282 281 278 275 275 274 271 269 268 267 262 260 260 258 259 261 261 263 265 268 272 273 275 277 280 282 276 269 272 283 290 290 288 286 283 286 285 279 276 275 277 281 287 285 287 293 294 304 309 307 316 318 317 317 275 285 276 282 312 308 287 284 275 263 246 234 230 222 231
261 261 261 259 258 257 257 259 261 265 268 270 273 275 276 278 279 280 282 287 287 285 282 279 276 272 267 262 260 256 254 256 257 259 261 260 262 265 267 269 270 272 276 278 278 277 277 280 284 286 284 282 278 278 285 280 276 274 273 280 289 293 292 294 299 303 312 312 290 314 323 309 286 277 275 276 294 314 286 270 271 256 244 233 225 206 185 191
259 257 257 255 253 254 256 259 263 268 270 271 274 275 277 279 281 282 287 292 292 291 289 278 269 263 260 254 249 248 250 253 255 256 258 259 259 262 264 266 268 267 268 272 274 275 280 287 290 282 273 274 273 280 288 277 274 274 272 280 285 290 296 298 303 307 307 299 290 301 304 282 290 293 277 276 296 288 252 265 254 231 226 212 211 214 208 246
256 254 252 252 252 254 258 262 265 267 269 271 272 274 277 278 281 286 294 296 286 287 280 253 240 233 218 198 209 220 235 244 247 247 251 255 257 260 261 263 268 269 268 269 271 276 283 287 289 284 279 278 277 281 287 281 275 271 270 279 285 291 297 300 305 304 299 300 300 296 274 270 292 296 272 277 285 229 226 252 233 214 215 207 213 234 257 280
254 251 250 252 253 255 258 260 264 266 267 269 269 270 272 273 277 285 298 293 267 259 238 220 208 202 195 204 232 226 233 240 241 247 251 255 259 261 262 262 268 275 279 272 261 268 280 283 286 289 288 286 283 282 286 284 275 271 275 283 290 294 298 302 303 300 301 302 294 271 208 257 288 289 271 267 236 195 200 225 220 212 212 213 230 260 277 289
251 249 248 251 253 254 256 259 261 262 262 263 261 261 263 265 271 275 266 256 238 217 240 221 199 197 210 244 256 242 246 247 243 246 248 253 258 261 268 277 279 280 286 280 271 274 281 285 288 288 286 286 287 289 290 284 275 277 285 291 295 297 300 304 302 298 297 284 272 257 223 244 292 281 264 237 192 180 196 220 217 215 220 227 248 274 292 301
250 247 248 250 252 253 255 257 256 257 256 253 251 252 252 255 259 253 232 223 224 247 241 216 206 218 239 256 254 255 256 251 247 246 245 250 259 266 271 278 282 285 290 287 284 285 287 287 284 282 285 288 289 292 291 285 278 282 288 293 297 300 302 302 300 298 288 269 276 261 220 227 290 275 241 229 201 187 186 214 216 219 238 251 260 279 294 296
251 250 249 250 252 252 253 251 249 249 247 243 244 244 247 253 245 234 232 223 232 255 241 219 220 228 243 250 247 251 249 246 248 246 247 253 258 265 274 282 286 290 295 294 289 287 286 284 282 282 284 286 289 289 285 281 279 282 288 293 298 301 297 283 268 256 258 272 280 221 199 220 251 250 251 268 228 204 190 210 230 247 258 255 261 283 290 287
251 251 251 253 253 252 250 245 240 240 237 235 238 238 242 254 237 225 227 226 239 251 234 216 218 224 233 238 236 235 231 234 241 245 251 257 264 270 274 281 287 290 291 292 289 283 279 279 280 282 280 280 281 279 276 275 276 281 286 287 290 294 285 263 250 245 264 278 275 252 248 244 250 258 263 266 241 222 224 245 261 270 265 253 259 278 282 282
252 252 254 258 256 252 249 245 240 237 235 232 233 234 233 242 239 227 222 221 225 232 213 196 197 207 210 217 224 219 215 229 240 249 258 263 268 271 271 273 279 281 280 281 283 283 281 279 277 275 274 273 270 264 264 271 277 280 278 268 259 275 284 275 274 274 268 273 281 282 281 266 267 274 262 244 239 243 249 254 258 265 266 261 266 275 280 284
259 259 257 259 259 254 249 248 246 241 236 230 227 226 225 229 235 225 217 219 219 216 212 210 217 221 220 230 235 231 239 255 258 259 263 265 266 267 267 269 271 274 278 280 280 276 274 276 272 267 263 263 262 256 256 269 275 275 268 254 246 255 262 269 275 275 275 281 283 274 263 264 278 287 253 231 239 251 255 255 258 263 265 266 267 271 277 281
262 260 257 256 258 257 253 250 248 243 236 230 224 223 225 228 232 231 228 225 224 233 243 249 254 256 258 260 258 255 256 261 263 264 264 263 262 262 263 261 263 269 272 271 272 268 263 266 271 266 253 252 260 258 261 269 270 267 261 251 249 255 258 262 267 271 281 290 279 257 252 260 270 277 272 264 261 260 258 262 267 267 266 264 264 267 271 273
259 258 257 255 254 256 253 247 245 242 235 227 221 225 230 231 228 227 234 230 228 242 255 264 267 265 265 264 264 265 261 254 256 259 260 261 259 258 258 261 265 268 266 261 262 267 264 263 268 270 259 254 265 272 271 270 265 255 252 254 258 263 263 263 269 271 272 275 269 262 263 268 273 275 270 266 266 263 262 268 272 272 269 265 263 264 262 259
259 258 257 255 252 251 248 242 240 240 233 222 222 229 234 236 234 232 237 241 244 253 259 263 265 260 260 260 261 265 256 245 248 249 251 260 264 261 261 265 267 263 258 255 256 260 264 269 273 276 277 270 273 281 279 272 265 257 255 263 267 268 262 255 261 270 264 262 265 262 265 271 274 274 265 261 264 267 268 271 276 277 270 259 251 248 248 252
258 258 256 253 250 248 243 237 235 234 230 224 228 234 238 241 242 242 246 251 258 262 258 253 253 256 260 260 258 255 241 235 241 248 252 256 257 263 263 258 259 256 250 249 254 256 263 274 276 275 279 280 278 279 278 270 264 259 258 263 263 263 260 251 251 260 259 260 264 260 264 269 265 266 271 269 269 272 273 271 274 276 270 259 252 251 254 259
255 257 257 253 249 245 238 232 231 229 225 227 232 237 242 245 248 251 254 256 259 259 254 252 253 254 256 256 255 253 252 253 249 246 251 250 247 256 257 246 245 244 237 238 251 261 269 278 277 271 275 280 276 269 268 265 262 259 258 256 254 255 260 259 258 262 263 265 271 265 262 263 263 267 272 273 271 269 267 266 271 275 272 266 262 261 261 260
252 254 255 254 250 247 241 236 234 231 229 233 239 244 249 253 256 259 258 257 256 257 259 261 259 255 256 258 257 257 258 260 256 247 245 244 244 248 250 246 244 240 239 247 260 269 273 271 268 268 272 273 266 257 260 263 261 257 249 243 245 251 257 259 258 257 258 263 271 267 257 257 262 266 270 273 275 272 273 278 280 280 276 268 261 259 258 257
253 253 254 254 250 249 244 239 240 241 239 242 246 249 252 256 260 261 259 256 257 259 262 263 260 256 256 256 258 262 261 259 257 253 249 251 253 255 256 257 256 254 257 264 266 268 269 264 260 262 263 262 261 260 264 265 262 257 252 247 251 256 259 262 259 252 251 252 255 261 265 260 260 265 270 272 276 282 284 282 279 279 278 272 263 258 258 262
253 252 255 255 251 248 244 243 249 251 248 248 251 252 254 257 261 262 261 260 260 260 260 259 258 257 256 257 259 262 261 260 260 257 256 258 259 259 260 263 266 265 266 270 268 264 262 260 260 260 259 261 266 268 270 268 262 256 255 258 261 259 257 255 255 256 256 257 261 262 264 263 264 268 272 273 276 281 280 278 278 279 277 273 270 271 277 284
255 254 256 255 251 249 245 244 249 250 249 252 254 253 254 257 259 260 259 258 257 257 257 257 257 256 256 257 258 257 258 261 263 260 260 263 263 262 263 263 264 264 265 268 267 263 262 260 261 266 269 271 274 274 270 267 265 259 257 262 262 258 255 253 258 267 266 262 265 266 261 264 267 268 272 277 279 276 273 275 279 279 276 275 278 284 291 297
255 255 254 251 248 245 241 242 246 247 248 251 252 252 253 253 254 254 256 256 255 254 255 256 256 255 255 256 256 255 254 255 260 261 259 260 260 262 262 260 258 260 263 265 265 266 266 262 266 283 288 282 279 274 263 263 265 260 258 262 258 255 258 260 265 270 268 261 263 262 264 272 274 274 275 278 277 273 271 272 273 273 274 279 285 291 296 299
252 250 248 246 243 240 239 242 246 247 248 250 250 250 250 248 249 250 251 253 254 254 253 254 253 254 255 255 254 253 250 249 255 257 258 259 259 260 262 262 263 265 265 263 263 264 263 260 262 269 269 262 261 255 254 269 279 276 276 275 270 269 268 268 270 270 265 264 261 255 264 274 273 273 276 276 273 270 269 268 271 278 284 287 291 295 298 300
246 243 241 240 236 236 239 243 243 243 244 246 247 247 245 243 245 247 247 248 249 250 250 251 253 253 253 253 254 254 253 253 255 256 259 261 260 262 263 264 267 267 263 261 258 259 263 264 265 266 264 262 264 266 270 279 284 283 283 280 276 275 272 269 267 262 262 269 267 260 266 270 268 269 272 273 272 274 275 276 282 288 291 293 294 295 297 299
241 239 238 236 231 231 235 238 238 238 239 240 241 243 243 241 241 243 246 246 245 245 246 247 248 249 252 253 254 255 254 253 254 256 259 260 260 263 265 267 268 266 263 262 260 261 268 271 268 268 269 268 269 273 277 281 281 279 279 276 272 271 270 266 261 259 264 271 269 266 269 271 272 274 274 274 276 280 283 284 287 291 294 295 296 296 297 298
235 236 237 236 233 232 234 237 239 238 236 235 238 242 243 241 238 239 245 248 248 246 245 245 245 247 250 252 250 250 252 251 249 252 256 259 260 260 261 265 267 267 267 266 266 268 272 273 271 272 273 273 274 276 277 277 276 276 275 273 271 270 267 263 261 264 267 266 267 271 274 273 274 275 276 278 280 282 283 284 287 290 293 294 294 295 296 296
233 236 236 234 236 238 239 243 245 241 235 232 235 239 241 241 239 237 242 247 249 248 247 246 247 247 246 245 243 242 244 243 241 244 247 251 254 256 259 262 265 267 269 271 274 277 277 276 277 278 277 276 275 276 277 277 276 276 273 271 270 268 265 264 266 270 270 268 271 274 274 272 274 276 279 279 279 282 286 288 288 290 291 291 291 292 291 291
233 235 235 234 237 239 241 243 243 240 237 233 234 238 240 241 242 239 240 246 248 248 247 244 243 244 244 244 243 242 243 244 244 245 247 250 253 255 259 263 265 268 272 275 279 279 276 275 277 276 274 274 275 279 281 278 274 273 270 268 267 265 264 266 270 272 272 272 274 275 274 275 278 280 281 279 277 281 286 287 286 287 287 286 285 285 284 284
233 233 234 235 237 238 240 240 239 239 237 233 235 238 239 241 243 238 236 244 246 245 246 245 243 244 248 249 249 248 248 249 249 251 253 255 257 259 261 264 268 271 274 276 278 276 275 275 276 277 274 273 277 281 279 276 275 272 268 267 266 265 266 267 269 271 274 276 279 279 278 279 280 280 279 278 279 283 285 283 281 281 281 280 280 280 279 279
231 231 231 233 235 236 237 237 236 236 238 237 239 241 241 243 245 239 233 243 250 250 251 253 253 253 255 255 255 255 254 255 256 258 260 261 263 264 265 266 268 271 273 275 276 275 274 270 268 271 271 271 275 277 277 282 284 272 268 271 271 270 271 272 273 274 275 276 278 279 279 280 280 280 281 282 283 283 282 279 278 279 279 278 277 276 276 275
Height
3181 3181 3181 3181 3181 3181 3181 3180 3180 3180 3180 3180 3180 3180 3179 3179 3179 3179 3178 3178 3178 3177 3177 3177 3177 3177 3176 3176 3176 3176 3176 3176 3176 3175 3174 3174 3174 3174 3173 3173 3173 3173 3172 3172 3172 3172 3172 3171 3171 3171 3170 3170 3170 3169 3169 3169 3169 3168 3168 3168 3168 3169 3169 3168 3168 3168 3166 3165 3165 3163 3161 3162 3162 3161 3159 3159 3160 3160 3160 3161 3160 3159 3158 3158 3158 3156 3156 3155
3180 3180 3180 3180 3180 3180 3180 3180 3179 3179 3179 3179 3179 3178 3178 3178 3178 3177 3177 3177 3176 3176 3176 3176 3175 3175 3175 3175 3175 3175 3175 3175 3174 3174 3173 3172 3172 3172 3172 3172 3172 3171 3171 3171 3171 3170 3170 3170 3170 3170 3169 3169 3169 3168 3168 3168 3167 3166 3166 3166 3165 3167 3167 3166 3166 3166 3165 3163 3163 3162 3160 3160 3160 3160 3158 3156 3157 3157 3157 3158 3159 3157 3156 3156 3156 3154 3153 3153
3178 3179 3179 3179 3179 3179 3178 3178 3178 3178 3178 3178 3178 3177 3177 3177 3176 3176 3176 3176 3175 3175 3175 3174 3174 3174 3174 3173 3173 3173 3173 3173 3173 3172 3171 3171 3170 3170 3170 3170 3170 3170 3169 3169 3169 3169 3169 3169 3169 3168 3168 3167 3167 3167 3166 3166 3166 3165 3164 3164 3163 3164 3164 3164 3163 3163 3163 3161 3160 3160 3159 3158 3158 3158 3156 3154 3154 3155 3156 3156 3156 3156 3155 3154 3153 3152 3151 3151
3177 3177 3177 3177 3177 3177 3177 3177 3177 3177 3177 3176 3176 3176 3176 3175 3175 3175 3174 3174 3174 3174 3173 3173 3172 3172 3172 3172 3172 3171 3172 3172 3171 3170 3169 3169 3169 3169 3169 3169 3168 3168 3168 3168 3168 3168 3168 3167 3167 3167 3167 3166 3165 3165 3165 3164 3164 3163 3161 3162 3162 3162 3162 3162 3161 3160 3160 3159 3158 3157 3157 3156 3156 3155 3154 3152 3150 3151 3154 3154 3153 3153 3152 3151 3150 3150 3149 3148
3175 3175 3175 3175 3175 3175 3175 3175 3175 3175 3175 3175 3175 3174 3174 3174 3174 3173 3173 3173 3173 3172 3172 3171 3171 3171 3170 3170 3170 3170 3170 3171 3169 3168 3168 3168 3168 3168 3167 3167 3166 3166 3166 3166 3166 3166 3166 3166 3166 3165 3165 3165 3163 3163 3163 3163 3163 3161 3159 3160 3160 3160 3159 3159 3159 3157 3158 3157 3155 3155 3154 3154 3153 3153 3152 3150 3147 3147 3152 3153 3151 3150 3149 3148 3147 3147 3147 3146
3173 3173 3173 3173 3173 3173 3173 3173 3173 3173 3173 3173 3173 3172 3172 3172 3172 3171 3171 3171 3171 3171 3170 3170 3169 3169 3169 3168 3168 3168 3169 3170 3169 3167 3166 3166 3167 3166 3166 3165 3165 3165 3165 3165 3165 3164 3165 3164 3164 3164 3163 3163 3162 3161 3161 3161 3160 3159 3157 3158 3158 3158 3157 3157 3157 3154 3155 3154 3153 3153 3152 3151 3150 3150 3150 3147 3144 3145 3149 3150 3148 3148 3146 3145 3144 3144 3144 3143
3171 3171 3171 3171 3171 3171 3171 3171 3171 3171 3171 3171 3170 3170 3170 3170 3170 3169 3169 3169 3169 3169 3168 3168 3168 3167 3167 3166 3166 3166 3166 3168 3168 3166 3165 3165 3165 3164 3164 3164 3163 3163 3163 3163 3163 3163 3163 3162 3162 3162 3161 3161 3161 3159 3159 3159 3158 3157 3155 3156 3156 3155 3154 3155 3154 3152 3153 3152 3151 3150 3148 3149 3148 3147 3146 3144 3142 3143 3145 3146 3145 3144 3143 3143 3142 3141 3141 3141
3169 3169 3169 3169 3169 3169 3169 3169 3169 3169 3169 3169 3168 3168 3168 3168 3168 3167 3167 3167 3167 3167 3166 3166 3166 3165 3165 3164 3164 3163 3163 3166 3167 3165 3164 3163 3163 3163 3162 3162 3162 3162 3162 3161 3161 3161 3161 3161 3161 3160 3160 3160 3158 3158 3157 3157 3156 3154 3153 3154 3153 3152 3151 3152 3151 3149 3150 3149 3149 3147 3145 3146 3146 3143 3140 3141 3142 3142 3142 3142 3142 3141 3140 3140 3139 3139 3138 3138
3167 3167 3167 3167 3167 3167 3167 3167 3167 3167 3167 3167 3166 3166 3166 3166 3166 3165 3165 3165 3165 3165 3164 3164 3164 3163 3163 3162 3162 3160 3161 3164 3164 3163 3163 3162 3162 3161 3160 3160 3160 3160 3160 3160 3159 3159 3159 3159 3158 3158 3158 3158 3156 3155 3155 3154 3154 3152 3150 3151 3150 3149 3149 3149 3148 3146 3146 3146 3145 3144 3142 3142 3143 3140 3135 3138 3141 3139 3138 3138 3139 3138 3137 3136 3136 3136 3135 3135
3165 3165 3165 3165 3165 3165 3165 3165 3165 3165 3165 3164 3164 3164 3164 3164 3164 3163 3163 3163 3163 3163 3162 3162 3162 3161 3161 3160 3159 3158 3160 3162 3162 3161 3161 3160 3160 3159 3159 3158 3158 3158 3158 3158 3157 3157 3157 3156 3156 3156 3156 3155 3154 3153 3153 3152 3151 3150 3149 3147 3147 3147 3146 3146 3144 3144 3144 3143 3142 3141 3139 3139 3140 3137 3133 3137 3138 3136 3135 3134 3134 3135 3134 3134 3133 3132 3132 3131
3162 3162 3162 3163 3163 3162 3162 3162 3162 3162 3162 3162 3162 3162 3162 3162 3161 3161 3161 3161 3161 3160 3160 3159 3159 3159 3158 3158 3156 3156 3158 3159 3159 3159 3159 3158 3158 3157 3157 3156 3156 3156 3156 3156 3155 3155 3155 3154 3154 3154 3153 3153 3152 3151 3150 3148 3147 3147 3147 3144 3145 3145 3143 3143 3142 3141 3141 3139 3138 3138 3136 3136 3137 3135 3132 3135 3135 3133 3133 3131 3130 3131 3131 3132 3130 3130 3129 3128
3160 3160 3160 3160 3160 3160 3160 3160 3160 3160 3160 3160 3160 3160 3160 3159 3159 3159 3159 3158 3158 3158 3158 3157 3157 3156 3156 3155 3154 3155 3156 3156 3156 3156 3156 3156 3155 3154 3154 3154 3154 3154 3153 3153 3153 3152 3152 3152 3152 3152 3151 3151 3150 3149 3146 3146 3145 3145 3144 3141 3141 3142 3140 3141 3140 3139 3139 3136 3135 3136 3133 3133 3134 3133 3132 3132 3130 3129 3130 3129 3127 3126 3127 3128 3128 3127 3126 3125
3157 3158 3158 3158 3158 3158 3158 3158 3158 3158 3158 3158 3158 3158 3157 3157 3157 3156 3156 3156 3156 3156 3155 3155 3154 3154 3153 3152 3152 3153 3153 3153 3153 3153 3153 3153 3152 3152 3152 3151 3151 3151 3151 3150 3150 3150 3150 3150 3150 3149 3149 3149 3148 3147 3144 3143 3143 3142 3142 3139 3137 3138 3136 3138 3137 3136 3136 3133 3133 3134 3131 3131 3132 3131 3132 3131 3129 3127 3127 3126 3125 3124 3124 3123 3124 3123 3122 3121
3155 3155 3155 3156 3156 3156 3156 3155 3155 3155 3155 3155 3155 3155 3155 3154 3154 3154 3153 3153 3153 3153 3153 3152 3152 3151 3150 3150 3150 3151 3151 3150 3150 3150 3150 3150 3149 3149 3149 3149 3149 3149 3148 3148 3148 3148 3147 3147 3147 3147 3147 3147 3146 3144 3143 3141 3140 3140 3140 3137 3136 3135 3133 3134 3133 3132 3132 3129 3129 3131 3128 3127 3128 3129 3129 3128 3126 3124 3123 3123 3123 3122 3120 3119 3119 3119 3118 3117
3152 3153 3153 3153 3153 3153 3153 3153 3153 3152 3152 3152 3152 3152 3152 3151 3151 3151 3150 3150 3150 3150 3150 3149 3149 3148 3147 3148 3149 3148 3148 3148 3148 3148 3147 3147 3147 3147 3147 3147 3146 3146 3146 3146 3146 3145 3145 3145 3145 3145 3145 3145 3144 3142 3140 3139 3139 3139 3137 3135 3135 3134 3131 3133 3131 3130 3129 3125 3125 3127 3124 3123 3125 3125 3126 3125 3123 3121 3119 3119 3119 3118 3117 3116 3116 3114 3113 3111
3150 3150 3150 3150 3150 3150 3150 3150 3150 3149 3149 3149 3149 3149 3149 3148 3148 3148 3147 3147 3147 3147 3147 3146 3146 3146 3144 3145 3147 3146 3146 3145 3145 3145 3145 3144 3144 3144 3144 3144 3144 3144 3144 3143 3143 3143 3143 3142 3142 3143 3143 3143 3142 3140 3138 3138 3137 3138 3136 3133 3133 3133 3131 3132 3131 3129 3128 3124 3123 3122 3119 3119 3120 3120 3121 3122 3121 3118 3116 3116 3115 3114 3113 3113 3112 3110 3108 3107
3146 3147 3147 3147 3147 3147 3147 3147 3147 3146 3146 3146 3146 3145 3145 3145 3145 3144 3144 3144 3144 3144 3143 3143 3143 3143 3142 3143 3143 3143 3143 3142 3142 3142 3142 3142 3142 3141 3142 3142 3142 3142 3141 3141 3141 3140 3140 3140 3140 3141 3141 3141 3140 3139 3138 3137 3136 3136 3135 3132 3131 3131 3130 3130 3129 3128 3126 3123 3122 3119 3115 3114 3115 3116 3116 3117 3117 3115 3114 3113 3112 3110 3110 3110 3108 3107 3106 3104
3143 3143 3144 3144 3144 3144 3144 3144 3144 3143 3143 3143 3143 3142 3142 3141 3141 3141 3141 3141 3141 3141 3140 3140 3140 3140 3139 3140 3140 3139 3140 3140 3139 3139 3139 3139 3139 3139 3138 3138 3139 3139 3138 3138 3138 3138 3138 3137 3137 3139 3139 3138 3137 3137 3136 3135 3135 3135 3134 3132 3130 3129 3129 3128 3127 3127 3125 3122 3121 3118 3115 3113 3114 3114 3113 3114 3114 3112 3110 3109 3108 3107 3107 3106 3104 3103 3102 3100
3140 3140 3140 3141 3141 3141 3141 3141 3141 3140 3140 3140 3139 3139 3139 3138 3138 3137 3137 3138 3138 3138 3137 3136 3137 3138 3137 3137 3136 3137 3137 3137 3137 3137 3137 3136 3136 3135 3135 3135 3135 3135 3135 3135 3134 3135 3136 3134 3134 3136 3137 3136 3135 3135 3133 3132 3133 3133 3131 3130 3128 3126 3125 3125 3125 3124 3122 3119 3117 3116 3113 3111 3111 3111 3111 3112 3111 3109 3107 3105 3105 3105 3104 3103 3101 3099 3098 3096
3137 3137 3137 3138 3138 3138 3138 3137 3137 3137 3137 3137 3136 3136 3135 3135 3135 3134 3134 3135 3135 3135 3134 3133 3133 3134 3134 3134 3133 3134 3135 3134 3134 3134 3134 3133 3133 3132 3132 3132 3132 3132 3132 3132 3131 3131 3133 3132 3131 3133 3134 3135 3135 3134 3132 3131 3131 3130 3128 3126 3125 3124 3122 3122 3122 3121 3119 3115 3114 3113 3110 3108 3107 3107 3108 3107 3107 3105 3104 3103 3103 3103 3102 3100 3097 3095 3093 3091
3133 3134 3134 3135 3135 3134 3135 3134 3134 3134 3134 3134 3134 3133 3132 3132 3132 3130 3130 3131 3131 3131 3131 3130 3129 3129 3131 3130 3129 3131 3131 3130 3130 3130 3130 3129 3130 3129 3128 3128 3129 3129 3128 3129 3129 3128 3129 3128 3128 3131 3132 3132 3132 3131 3130 3129 3127 3127 3125 3123 3122 3121 3119 3119 3120 3118 3116 3113 3111 3110 3108 3106 3105 3105 3105 3104 3103 3103 3103 3102 3101 3099 3098 3096 3092 3090 3088 3087
3130 3131 3131 3132 3132 3131 3131 3131 3130 3130 3131 3131 3130 3130 3129 3129 3129 3127 3126 3125 3126 3128 3127 3126 3125 3125 3127 3125 3125 3128 3127 3126 3126 3126 3126 3126 3125 3125 3124 3124 3126 3126 3125 3126 3127 3126 3125 3124 3125 3128 3129 3129 3128 3127 3127 3125 3124 3123 3122 3121 3120 3119 3117 3117 3117 3115 3114 3111 3109 3108 3105 3104 3104 3104 3103 3102 3101 3101 3100 3100 3097 3094 3093 3090 3088 3086 3085 3085
3127 3127 3128 3129 3128 3128 3128 3128 3127 3127 3127 3128 3127 3127 3127 3126 3125 3124 3123 3120 3120 3123 3123 3122 3122 3122 3123 3121 3122 3123 3121 3122 3122 3121 3122 3122 3121 3122 3121 3121 3123 3123 3122 3123 3124 3123 3122 3121 3122 3124 3125 3125 3124 3124 3123 3122 3120 3119 3119 3118 3117 3116 3116 3115 3115 3114 3112 3109 3107 3105 3103 3101 3101 3101 3102 3101 3100 3099 3098 3097 3094 3090 3089 3086 3084 3085 3085 3085
3123 3124 3124 3125 3125 3125 3125 3125 3125 3125 3125 3125 3124 3124 3124 3123 3122 3121 3120 3117 3114 3117 3119 3119 3118 3118 3118 3117 3117 3118 3117 3117 3117 3116 3119 3119 3118 3119 3119 3119 3120 3120 3119 3120 3121 3119 3120 3120 3120 3121 3121 3121 3121 3121 3121 3119 3117 3116 3116 3115 3114 3114 3115 3114 3112 3110 3109 3107 3105 3104 3102 3099 3100 3100 3100 3101 3100 3099 3097 3094 3091 3087 3086 3085 3084 3085 3085 3085
3120 3121 3121 3122 3122 3122 3123 3122 3122 3122 3122 3121 3122 3122 3121 3120 3120 3119 3118 3115 3110 3112 3115 3115 3114 3114 3114 3113 3113 3113 3113 3113 3114 3114 3116 3116 3116 3116 3116 3116 3117 3117 3117 3117 3118 3116 3116 3118 3117 3118 3118 3118 3118 3118 3119 3118 3115 3114 3113 3113 3112 3112 3112 3111 3110 3107 3106 3106 3103 3103 3102 3097 3098 3099 3098 3098 3098 3097 3095 3091 3088 3085 3084 3084 3085 3085 3084 3084
3117 3118 3118 3119 3119 3120 3120 3119 3120 3119 3118 3119 3119 3119 3119 3118 3117 3117 3117 3114 3109 3108 3110 3110 3110 3110 3110 3109 3109 3109 3110 3110 3111 3111 3112 3113 3114 3114 3114 3114 3114 3114 3115 3115 3115 3113 3113 3114 3115 3115 3116 3116 3116 3116 3117 3116 3114 3113 3112 3112 3111 3110 3109 3108 3107 3106 3105 3104 3102 3103 3102 3096 3094 3095 3094 3094 3094 3094 3093 3088 3085 3084 3083 3083 3084 3084 3083 3083
3114 3115 3115 3115 3116 3117 3117 3117 3117 3117 3115 3116 3116 3116 3116 3116 3116 3116 3116 3114 3108 3105 3106 3106 3106 3107 3107 3107 3107 3108 3108 3108 3109 3109 3110 3111 3111 3112 3112 3112 3111 3111 3112 3113 3113 3111 3111 3112 3112 3113 3113 3114 3114 3114 3115 3115 3114 3112 3110 3111 3110 3109 3108 3106 3106 3105 3103 3101 3098 3098 3100 3095 3090 3090 3089 3090 3090 3090 3089 3085 3083 3083 3082 3082 3083 3083 3082 3081
3110 3111 3111 3112 3113 3114 3114 3114 3114 3114 3113 3113 3113 3114 3114 3114 3115 3115 3117 3115 3107 3103 3104 3104 3104 3105 3106 3106 3106 3107 3106 3107 3108 3108 3108 3109 3109 3110 3110 3110 3110 3109 3110 3111 3110 3109 3109 3109 3110 3110 3111 3111 3111 3112 3112 3113 3112 3110 3109 3109 3109 3108 3107 3105 3104 3103 3101 3100 3095 3094 3097 3094 3088 3087 3086 3086 3087 3087 3085 3083 3083 3081 3080 3081 3082 3081 3081 3080
3106 3107 3108 3109 3109 3110 3111 3111 3111 3111 3110 3111 3111 3111 3111 3112 3113 3113 3117 3114 3104 3102 3104 3104 3104 3105 3105 3105 3105 3105 3106 3106 3106 3106 3107 3108 3108 3108 3108 3109 3109 3108 3108 3108 3108 3107 3107 3107 3107 3107 3108 3108 3108 3109 3109 3110 3109 3108 3107 3107 3106 3106 3105 3104 3102 3100 3100 3098 3092 3091 3093 3091 3086 3084 3085 3084 3084 3085 3083 3080 3080 3080 3079 3079 3080 3081 3080 3079
3103 3104 3104 3105 3106 3107 3107 3108 3108 3107 3108 3109 3109 3109 3110 3110 3111 3112 3113 3108 3102 3102 3103 3103 3104 3104 3104 3104 3104 3104 3105 3105 3105 3105 3106 3106 3107 3107 3107 3107 3107 3106 3106 3105 3105 3105 3105 3105 3105 3105 3105 3105 3105 3105 3106 3106 3106 3106 3105 3104 3103 3102 3101 3101 3099 3099 3099 3093 3087 3087 3089 3089 3086 3082 3084 3084 3083 3083 3081 3078 3078 3079 3079 3078 3078 3078 3078 3078
3099 3100 3100 3101 3102 3103 3104 3104 3104 3104 3106 3106 3106 3107 3108 3108 3109 3109 3106 3101 3100 3101 3101 3101 3102 3102 3102 3103 3103 3103 3103 3103 3104 3104 3105 3105 3106 3106 3106 3106 3106 3105 3105 3103 3102 3103 3102 3102 3102 3102 3103 3103 3102 3102 3103 3103 3104 3104 3103 3103 3102 3100 3099 3098 3096 3098 3096 3088 3084 3085 3087 3088 3085 3081 3082 3082 3082 3081 3079 3078 3078 3079 3079 3078 3077 3076 3076 3076
3096 3096 3096 3098 3099 3100 3101 3101 3101 3102 3103 3104 3104 3105 3106 3107 3105 3102 3099 3099 3100 3099 3098 3099 3100 3100 3101 3101 3101 3102 3102 3102 3103 3103 3103 3104 3104 3104 3105 3105 3105 3105 3104 3103 3102 3101 3100 3100 3100 3100 3100 3101 3101 3100 3100 3101 3102 3102 3101 3102 3101 3099 3097 3095 3093 3093 3090 3085 3083 3085 3086 3084 3080 3079 3080 3080 3080 3080 3078 3077 3077 3078 3078 3077 3075 3074 3074 3073
3092 3093 3094 3095 3096 3097 3098 3098 3099 3100 3100 3101 3102 3103 3105 3105 3098 3095 3096 3098 3099 3097 3097 3098 3098 3099 3100 3100 3101 3101 3101 3101 3102 3102 3102 3102 3102 3102 3102 3103 3103 3104 3103 3102 3101 3100 3098 3097 3097 3097 3097 3098 3098 3098 3099 3098 3099 3099 3099 3100 3100 3098 3097 3094 3091 3088 3085 3083 3083 3084 3084 3080 3075 3075 3075 3075 3076 3076 3075 3075 3075 3076 3077 3076 3073 3072 3071 3069
3089 3090 3091 3092 3094 3094 3095 3096 3096 3097 3097 3098 3099 3101 3102 3098 3092 3091 3094 3095 3095 3095 3096 3097 3097 3098 3099 3099 3100 3100 3101 3101 3100 3100 3100 3100 3100 3099 3100 3100 3100 3101 3101 3100 3099 3098 3097 3094 3093 3094 3094 3095 3096 3096 3098 3097 3096 3096 3096 3098 3097 3096 3096 3093 3090 3086 3082 3081 3082 3082 3080 3075 3072 3071 3070 3072 3072 3071 3071 3071 3072 3073 3074 3073 3072 3070 3068 3067
3086 3086 3087 3088 3090 3091 3092 3092 3093 3093 3094 3095 3097 3098 3094 3089 3088 3089 3091 3092 3094 3094 3095 3096 3096 3096 3096 3097 3097 3098 3099 3099 3097 3097 3097 3097 3097 3096 3097 3097 3097 3098 3099 3098 3097 3095 3094 3092 3090 3091 3092 3093 3094 3095 3096 3096 3095 3093 3093 3093 3092 3092 3093 3090 3087 3085 3083 3081 3079 3078 3075 3070 3070 3070 3068 3069 3069 3067 3067 3067 3067 3068 3069 3070 3069 3068 3067 3066
3082 3083 3084 3085 3086 3088 3088 3088 3089 3090 3090 3092 3093 3090 3084 3083 3085 3087 3088 3090 3092 3093 3093 3094 3094 3094 3094 3093 3093 3093 3095 3095 3094 3095 3095 3094 3094 3093 3094 3094 3094 3095 3096 3096 3095 3093 3092 3089 3088 3089 3090 3090 3091 3092 3093 3094 3093 3090 3089 3089 3088 3088 3090 3088 3084 3083 3084 3080 3074 3072 3069 3066 3068 3068 3065 3063 3063 3063 3062 3063 3063 3063 3064 3065 3065 3065 3064 3063
3079 3080 3080 3081 3083 3084 3084 3085 3085 3085 3086 3088 3086 3081 3078 3080 3083 3085 3085 3087 3089 3091 3092 3092 3092 3091 3091 3091 3091 3090 3091 3092 3092 3092 3093 3092 3091 3090 3090 3090 3090 3091 3093 3093 3093 3092 3090 3087 3086 3087 3087 3087 3088 3089 3088 3089 3089 3088 3087 3086 3086 3085 3086 3086 3083 3081 3081 3075 3069 3068 3066 3064 3066 3065 3061 3060 3060 3060 3059 3060 3060 3060 3060 3061 3061 3061 3061 3060
3075 3076 3077 3078 3079 3080 3080 3080 3080 3080 3082 3082 3079 3076 3076 3078 3080 3082 3083 3084 3086 3088 3089 3090 3090 3089 3089 3089 3089 3088 3088 3089 3090 3090 3090 3090 3088 3086 3087 3087 3087 3088 3089 3090 3090 3089 3088 3086 3084 3085 3084 3084 3085 3086 3084 3084 3085 3084 3083 3084 3084 3083 3082 3082 3081 3079 3078 3072 3066 3065 3064 3062 3063 3062 3060 3059 3056 3056 3056 3057 3058 3057 3057 3058 3058 3058 3058 3057
3072 3072 3072 3074 3075 3075 3075 3075 3075 3076 3077 3075 3073 3073 3073 3074 3076 3079 3081 3082 3083 3084 3085 3085 3086 3087 3086 3086 3087 3086 3085 3086 3087 3088 3087 3086 3085 3083 3083 3084 3084 3085 3085 3086 3087 3086 3086 3085 3082 3082 3082 3081 3082 3082 3081 3081 3081 3080 3080 3080 3081 3080 3079 3079 3077 3076 3075 3070 3066 3065 3061 3059 3059 3059 3058 3056 3053 3053 3054 3054 3055 3054 3055 3055 3055 3055 3054 3054
3069 3068 3068 3071 3072 3071 3071 3071 3072 3073 3072 3071 3070 3070 3071 3072 3073 3075 3077 3078 3079 3080 3080 3081 3083 3083 3083 3082 3083 3083 3083 3082 3083 3084 3084 3082 3081 3081 3081 3081 3081 3082 3082 3083 3084 3083 3084 3083 3079 3079 3080 3078 3077 3078 3078 3078 3078 3077 3076 3077 3077 3077 3077 3075 3073 3072 3071 3066 3063 3062 3057 3054 3057 3057 3054 3052 3051 3051 3052 3052 3051 3051 3051 3051 3051 3051 3050 3049
3065 3064 3064 3067 3068 3068 3069 3068 3067 3068 3068 3067 3067 3068 3069 3070 3070 3071 3073 3074 3074 3075 3076 3077 3078 3078 3078 3079 3079 3079 3079 3078 3079 3079 3079 3078 3078 3078 3078 3078 3078 3079 3080 3080 3081 3080 3080 3079 3077 3076 3077 3074 3073 3075 3075 3075 3075 3075 3074 3074 3074 3075 3075 3073 3068 3066 3066 3062 3060 3059 3052 3050 3055 3055 3051 3051 3051 3050 3049 3048 3048 3047 3047 3047 3046 3046 3045 3045
3061 3059 3060 3063 3064 3065 3065 3064 3063 3064 3063 3063 3064 3065 3066 3066 3066 3066 3067 3069 3069 3071 3072 3073 3073 3074 3074 3075 3075 3076 3075 3074 3074 3075 3074 3073 3074 3075 3074 3074 3075 3076 3077 3077 3077 3077 3076 3075 3073 3072 3072 3070 3070 3072 3072 3070 3071 3071 3070 3070 3071 3071 3071 3069 3064 3063 3062 3058 3057 3056 3049 3046 3051 3051 3049 3050 3051 3049 3046 3044 3043 3043 3042 3042 3041 3041 3040 3039
3056 3056 3057 3059 3059 3060 3061 3059 3059 3059 3058 3058 3060 3062 3063 3062 3062 3062 3062 3064 3065 3066 3067 3068 3069 3069 3070 3071 3071 3072 3071 3070 3069 3070 3070 3070 3071 3071 3070 3071 3072 3072 3073 3073 3073 3073 3072 3071 3069 3068 3067 3066 3066 3067 3067 3065 3065 3066 3065 3066 3066 3065 3066 3065 3061 3060 3058 3055 3055 3052 3044 3042 3047 3048 3048 3048 3048 3047 3044 3042 3041 3039 3038 3037 3036 3035 3035 3033
3051 3051 3053 3054 3054 3055 3054 3053 3053 3053 3053 3055 3056 3057 3058 3058 3058 3058 3058 3059 3061 3062 3063 3063 3065 3065 3066 3067 3067 3067 3068 3067 3066 3066 3066 3066 3067 3066 3066 3067 3068 3069 3069 3069 3069 3069 3068 3068 3067 3066 3065 3064 3063 3062 3062 3061 3061 3061 3061 3063 3062 3061 3062 3061 3059 3058 3053 3050 3052 3048 3040 3040 3044 3045 3045 3045 3044 3043 3041 3040 3038 3036 3034 3033 3031 3030 3030 3029
3045 3046 3047 3048 3049 3048 3047 3047 3049 3049 3050 3052 3052 3053 3054 3053 3053 3054 3055 3056 3057 3058 3059 3059 3060 3061 3062 3062 3062 3062 3063 3063 3063 3062 3062 3062 3063 3063 3063 3064 3064 3065 3065 3065 3065 3065 3065 3064 3064 3065 3064 3063 3060 3059 3059 3059 3059 3058 3059 3060 3059 3060 3060 3058 3057 3054 3048 3044 3046 3044 3038 3039 3041 3041 3041 3041 3040 3038 3037 3036 3034 3033 3031 3030 3028 3027 3025 3024
3040 3040 3040 3042 3043 3042 3041 3043 3045 3045 3047 3048 3048 3048 3049 3049 3049 3050 3051 3052 3053 3054 3055 3055 3056 3057 3057 3057 3058 3058 3059 3059 3060 3059 3058 3059 3059 3060 3060 3060 3060 3061 3061 3061 3061 3062 3061 3060 3061 3061 3060 3059 3058 3056 3056 3057 3056 3055 3056 3057 3056 3056 3056 3055 3053 3047 3043 3041 3041 3040 3038 3036 3037 3038 3038 3037 3036 3034 3032 3031 3029 3028 3027 3026 3025 3023 3021 3019
3035 3034 3034 3036 3037 3037 3037 3038 3040 3041 3043 3045 3044 3043 3044 3045 3046 3046 3046 3047 3048 3050 3051 3051 3052 3052 3052 3053 3054 3054 3055 3056 3056 3055 3054 3055 3056 3057 3056 3056 3056 3056 3057 3057 3057 3058 3058 3057 3057 3057 3055 3055 3055 3054 3054 3054 3052 3052 3052 3052 3052 3051 3051 3050 3045 3040 3042 3041 3035 3035 3037 3032 3032 3034 3033 3032 3033 3031 3029 3027 3025 3024 3022 3021 3020 3017 3016 3015
3029 3029 3030 3031 3031 3032 3032 3033 3035 3037 3040 3041 3040 3040 3040 3041 3042 3043 3043 3043 3044 3046 3047 3046 3047 3048 3048 3049 3051 3050 3051 3051 3051 3051 3051 3051 3052 3052 3052 3052 3052 3052 3052 3053 3053 3054 3054 3052 3052 3052 3051 3051 3051 3050 3050 3050 3048 3049 3049 3047 3046 3046 3044 3041 3037 3037 3041 3037 3029 3031 3033 3028 3028 3030 3029 3028 3029 3028 3027 3025 3023 3022 3019 3017 3016 3013 3011 3010
3024 3024 3026 3027 3027 3027 3028 3030 3032 3034 3035 3037 3037 3036 3036 3037 3038 3039 3039 3039 3039 3041 3042 3042 3043 3044 3044 3045 3046 3046 3047 3047 3047 3047 3048 3048 3048 3048 3048 3049 3048 3048 3048 3049 3049 3051 3050 3048 3048 3048 3046 3045 3045 3044 3044 3045 3044 3043 3043 3042 3041 3039 3036 3034 3033 3035 3036 3031 3027 3028 3026 3023 3024 3025 3024 3025 3024 3022 3022 3020 3019 3018 3016 3014 3012 3010 3008 3006
3020 3021 3023 3024 3023 3025 3026 3028 3030 3030 3031 3033 3032 3031 3032 3033 3034 3036 3036 3035 3035 3037 3038 3038 3039 3040 3040 3041 3042 3042 3043 3043 3043 3043 3044 3044 3044 3045 3045 3045 3045 3045 3045 3045 3046 3046 3046 3045 3044 3045 3042 3040 3040 3039 3039 3040 3039 3037 3036 3036 3035 3031 3029 3030 3031 3030 3029 3026 3024 3024 3019 3017 3020 3020 3018 3019 3018 3017 3015 3014 3012 3012 3010 3009 3008 3006 3004 3002
3016 3017 3019 3020 3020 3022 3023 3024 3026 3026 3026 3027 3026 3027 3029 3029 3030 3033 3033 3031 3031 3033 3034 3034 3035 3036 3036 3037 3038 3038 3039 3039 3039 3039 3040 3040 3040 3041 3041 3041 3041 3041 3041 3041 3041 3042 3042 3041 3040 3041 3039 3035 3036 3036 3035 3035 3034 3031 3029 3028 3026 3024 3024 3026 3026 3026 3025 3021 3019 3018 3015 3013 3015 3015 3013 3012 3012 3011 3010 3008 3006 3005 3004 3003 3002 3001 3000 2998
3013 3014 3016 3016 3017 3018 3019 3020 3021 3021 3021 3022 3022 3024 3025 3025 3026 3029 3028 3027 3027 3029 3030 3031 3031 3032 3033 3033 3033 3033 3033 3034 3034 3035 3035 3036 3036 3037 3037 3037 3038 3037 3036 3037 3037 3037 3038 3037 3037 3038 3034 3030 3032 3032 3031 3031 3029 3022 3018 3018 3019 3020 3020 3019 3019 3020 3020 3018 3015 3013 3010 3009 3010 3009 3008 3007 3006 3005 3004 3003 3001 2999 2998 2997 2996 2996 2995 2994